[ ตารางข้อมูล ] [ Min-Max ] [ วันนี้4 ] [ วันนี้2 ] [ เทียบ3วัน A ] [ เทียบ4วัน B ]   

วันนี้2   [ ◀ ช่วงเก่ากว่า ] [ ช่วงที่ 233 ] [ ช่วงใหม่กว่า ▶ ] [ ล่าสุด ]    [ 3 ชั่วโมง ] [ 6 ชั่วโมง ] [ 12 ชั่วโมง ] [ 24 ชั่วโมง ]   วันนี้2

อุณภูมิตู้ Knockdown4529  ราย 3 ชั่วโมง  ที่วัดได้ ในช่วงวันเวลา 07/04/2026 (08:04) ถึง 07/04/2026 (11:04) 
ความชื้นในตู้ Knockdown4529  ราย 3 ชั่วโมง  ที่วัดได้ ในช่วงวันเวลา 07/04/2026 (08:04) ถึง 07/04/2026 (11:04) 

 
DS18B20SHTC3 
IDDate d/m/Y & Timedata1
สูง
data2
ต่ำ
data3
นอก
temp
pcb
hum
pcb
Time
 9617  07/04/2026 11:02:51  32.4  30.8  34.5  31.6  65.2  11:02 
 9616  07/04/2026 10:58:09  32.3  30.8  34.2  31.4  65.3  10:58 
 9615  07/04/2026 10:53:27  32.2  30.6  34.2  31.4  65.2  10:53 
 9614  07/04/2026 10:48:43  32.1  30.6  34.1  31.4  65.4  10:48 
 9613  07/04/2026 10:44:01  32.1  30.5  34.2  31.1  65.5  10:44 
 9612  07/04/2026 10:39:16  31.9  30.4  34.1  31.1  65.7  10:39 
 9611  07/04/2026 10:34:34  31.8  30.3  33.9  31.0  65.7  10:34 
 9610  07/04/2026 10:29:51  31.7  30.2  34.2  30.7  65.8  10:29 
 9609  07/04/2026 10:25:09  31.6  30.1  33.9  30.8  66.0  10:25 
 9608  07/04/2026 10:20:27  31.4  30.1  33.7  30.7  66.1  10:20 
 9607  07/04/2026 10:15:45  31.3  29.9  33.6  30.5  66.2  10:15 
 9606  07/04/2026 10:11:03  31.2  29.8  33.4  30.5  66.4  10:11 
 9605  07/04/2026 10:06:21  31.1  29.8  33.0  30.5  66.5  10:06 
 9604  07/04/2026 10:01:39  31.0  29.7  32.9  30.4  66.6  10:01 
 9603  07/04/2026 09:56:57  30.8  29.6  33.0  30.1  66.8  09:56 
 9602  07/04/2026 09:52:15  30.7  29.5  32.8  29.9  66.9  09:52 
 9601  07/04/2026 09:47:33  30.6  29.4  32.7  30.0  67.1  09:47 
 9600  07/04/2026 09:42:50  30.4  29.4  32.4  29.7  67.2  09:42 
 9599  07/04/2026 09:38:07  30.3  29.2  32.4  29.6  67.3  09:38 
 9598  07/04/2026 09:33:24  30.2  29.2  32.0  29.7  67.6  09:33 
 9597  07/04/2026 09:28:42  30.1  29.1  31.4  29.6  67.8  09:28 
 9596  07/04/2026 09:23:59  29.9  29.0  31.5  29.5  68.0  09:23 
 9595  07/04/2026 09:19:17  29.8  28.9  31.3  29.3  68.0  09:19 
 9594  07/04/2026 09:14:35  29.7  28.8  30.9  29.2  68.2  09:14 

Data every 5 minute.


ใช้เวลาประมวลผล 0.00191 วินาที